EW9655 Weather Reports


time (UTC)temp
C
wind
direction
speed
KPH
gust
KPH
rain 1hr
cm
rain 24hr
cm
rain mn
cm
humidity
%
barometer
mb
20190223150716 11 83 6.4 17.7 0.00 0.00 0.00 31 1040.5
20190223150215 11 69 6.4 17.7 0.00 0.00 0.00 31 1040.5
20190223145715 11 69 6.4 17.7 0.00 0.00 0.00 31 1040.7
20190223145216 11 62 6.4 16.1 0.00 0.00 0.00 31 1040.5
20190223144715 11 69 8.0 17.7 0.00 0.00 0.00 31 1040.5
20190223144215 11 57 8.0 19.3 0.00 0.00 0.00 31 1040.5
20190223143715 11 46 8.0 19.3 0.00 0.00 0.00 31 1040.4
20190223143215 11 60 8.0 19.3 0.00 0.00 0.00 31 1040.4
20190223142715 11 71 6.4 16.1 0.00 0.00 0.00 31 1040.4
20190223142215 11 71 4.8 17.7 0.00 0.00 0.00 31 1040.4
20190223141715 11 84 4.8 24.1 0.00 0.00 0.00 31 1040.5
20190223141215 11 58 4.8 24.1 0.00 0.00 0.00 31 1040.7
20190223140715 11 66 6.4 24.1 0.00 0.00 0.00 31 1040.8
20190223140215 11 43 8.0 17.7 0.00 0.00 0.00 31 1040.7
20190223135715 11 61 9.7 17.7 0.00 0.00 0.00 31 1040.8
20190223135215 11 61 6.4 17.7 0.00 0.00 0.00 31 1040.8
20190223134715 11 62 4.8 16.1 0.00 0.00 0.00 31 1040.8
20190223134216 11 53 6.4 16.1 0.00 0.00 0.00 31 1040.8
20190223133715 11 61 6.4 16.1 0.00 0.00 0.00 31 1040.9
20190223133215 11 61 6.4 20.9 0.00 0.00 0.00 31 1040.9
20190223132715 10 55 8.0 20.9 0.00 0.00 0.00 31 1040.9
20190223132215 10 53 8.0 20.9 0.00 0.00 0.00 31 1040.9
20190223131715 11 57 6.4 20.9 0.00 0.00 0.00 31 1041.1
20190223131215 10 65 6.4 20.9 0.00 0.00 0.00 31 1041.1
20190223130715 10 40 6.4 20.9 0.00 0.00 0.00 31 1041.1
20190223130215 10 47 6.4 19.3 0.00 0.00 0.00 31 1041.1
20190223125715 10 58 4.8 19.3 0.00 0.00 0.00 31 1041.2
20190223125215 10 32 4.8 19.3 0.00 0.00 0.00 31 1041.2
20190223124715 10 64 6.4 16.1 0.00 0.00 0.00 31 1041.3
20190223124215 10 26 6.4 16.1 0.00 0.00 0.00 31 1041.4
20190223123715 10 48 6.4 16.1 0.00 0.00 0.00 31 1041.5
20190223123215 10 60 6.4 16.1 0.00 0.00 0.00 31 1041.6
20190223122715 10 57 6.4 16.1 0.00 0.00 0.00 31 1041.6
20190223122215 10 53 6.4 16.1 0.00 0.00 0.00 31 1041.5
20190223121715 10 44 6.4 16.1 0.00 0.00 0.00 31 1041.6
20190223121215 10 50 6.4 16.1 0.00 0.00 0.00 31 1041.6
20190223120715 10 27 6.4 16.1 0.00 0.00 0.00 31 1041.5
20190223120215 10 52 6.4 16.1 0.00 0.00 0.00 31 1041.6
20190223115715 10 45 6.4 19.3 0.00 0.00 0.00 31 1041.5
20190223115215 9 59 6.4 19.3 0.00 0.00 0.00 31 1041.5
20190223114716 9 55 8.0 19.3 0.00 0.00 0.00 31 1041.6
20190223114215 9 61 8.0 16.1 0.00 0.00 0.00 31 1041.7
20190223113715 9 57 8.0 16.1 0.00 0.00 0.00 31 1041.8
20190223113215 8 44 8.0 17.7 0.00 0.00 0.00 31 1041.8
20190223112715 8 53 8.0 19.3 0.00 0.00 0.00 32 1041.8
20190223112215 8 55 8.0 19.3 0.00 0.00 0.00 32 1041.9
20190223111715 8 57 8.0 19.3 0.00 0.00 0.00 32 1041.9
20190223111215 7 57 8.0 20.9 0.00 0.00 0.00 32 1041.9
20190223110715 7 42 9.7 22.5 0.00 0.00 0.00 32 1042.0
20190223110215 7 39 12.9 22.5 0.00 0.00 0.00 32 1042.0
20190223105715 6 61 14.5 22.5 0.00 0.00 0.00 32 1042.0
20190223105215 6 74 14.5 20.9 0.00 0.00 0.00 32 1042.1
20190223104716 6 60 12.9 20.9 0.00 0.00 0.00 32 1042.1
20190223104215 6 68 11.3 20.9 0.00 0.00 0.00 32 1042.1
20190223103715 6 67 12.9 19.3 0.00 0.00 0.00 32 1042.1
20190223103215 6 74 14.5 19.3 0.00 0.00 0.00 32 1042.1
20190223102716 6 81 12.9 19.3 0.00 0.00 0.00 32 1042.2
20190223102216 6 78 9.7 19.3 0.00 0.00 0.00 32 1042.1
20190223101715 5 59 8.0 19.3 0.00 0.00 0.00 32 1042.1
20190223101215 5 65 9.7 19.3 0.00 0.00 0.00 32 1042.0
20190223100715 5 55 9.7 17.7 0.00 0.00 0.00 32 1042.0
20190223100215 5 63 9.7 17.7 0.00 0.00 0.00 32 1042.0
20190223095715 5 78 9.7 17.7 0.00 0.00 0.00 32 1042.0
20190223095215 5 79 9.7 17.7 0.00 0.00 0.00 32 1042.0
20190223094716 4 64 6.4 14.5 0.00 0.00 0.00 32 1042.1
20190223094215 4 68 8.0 16.1 0.00 0.00 0.00 33 1042.1
20190223093716 4 86 9.7 16.1 0.00 0.00 0.00 33 1042.2
20190223093216 3 82 8.0 16.1 0.00 0.00 0.00 33 1042.2
20190223092715 3 77 9.7 17.7 0.00 0.00 0.00 33 1042.3
20190223092215 3 74 9.7 17.7 0.00 0.00 0.00 33 1042.3
20190223091716 3 96 9.7 19.3 0.00 0.00 0.00 32 1042.3
20190223091215 3 71 9.7 19.3 0.00 0.00 0.00 32 1042.3
20190223090715 3 86 11.3 19.3 0.00 0.00 0.00 32 1042.3
20190223090215 3 69 11.3 19.3 0.00 0.00 0.00 32 1042.4
20190223085715 3 86 12.9 20.9 0.00 0.00 0.00 32 1042.4
20190223085215 3 72 9.7 20.9 0.00 0.00 0.00 32 1042.4
20190223084715 3 59 6.4 20.9 0.00 0.00 0.00 32 1042.4
20190223084215 3 88 6.4 16.1 0.00 0.00 0.00 32 1042.4
20190223083716 3 80 6.4 19.3 0.00 0.00 0.00 32 1042.5
20190223083215 3 61 6.4 20.9 0.00 0.00 0.00 32 1042.5
20190223082715 3 68 8.0 20.9 0.00 0.00 0.00 32 1042.4
20190223082216 3 71 8.0 20.9 0.00 0.00 0.00 32 1042.5
20190223081715 3 44 6.4 17.7 0.00 0.00 0.00 32 1042.4
20190223081215 3 53 4.8 17.7 0.00 0.00 0.00 32 1042.4
20190223080715 3 65 4.8 16.1 0.00 0.00 0.00 32 1042.5
20190223080215 2 66 4.8 16.1 0.00 0.00 0.00 32 1042.4
20190223075715 2 69 1.6 14.5 0.00 0.00 0.00 32 1042.3
20190223075215 0 247 0.0 4.8 0.00 0.00 0.00 32 1042.3
20190223074716 0 247 0.0 1.6 0.00 0.00 0.00 32 1042.4
20190223074215 0 258 0.0 1.6 0.00 0.00 0.00 32 1042.3
20190223073715 0 236 0.0 1.6 0.00 0.00 0.00 32 1042.3
20190223073215 0 244 0.0 0.0 0.00 0.00 0.00 32 1042.3
20190223072715 0 269 0.0 1.6 0.00 0.00 0.00 32 1042.2
20190223072215 0 269 0.0 1.6 0.00 0.00 0.00 32 1042.2
20190223071716 0 269 0.0 1.6 0.00 0.00 0.00 32 1042.3
20190223071215 0 269 0.0 0.0 0.00 0.00 0.00 32 1042.3
20190223070715 0 269 0.0 0.0 0.00 0.00 0.00 32 1042.3
20190223070215 0 269 0.0 0.0 0.00 0.00 0.00 32 1042.3
20190223065715 0 269 0.0 0.0 0.00 0.00 0.00 32 1042.3
20190223065215 0 269 0.0 0.0 0.00 0.00 0.00 32 1042.2
20190223064715 0 269 0.0 0.0 0.00 0.00 0.00 32 1042.3
20190223064215 0 269 0.0 0.0 0.00 0.00 0.00 32 1042.3
20190223063715 0 269 0.0 0.0 0.00 0.00 0.00 32 1042.2
20190223063215 0 269 0.0 0.0 0.00 0.00 0.00 32 1042.2
20190223062715 0 269 0.0 0.0 0.00 0.00 0.00 32 1042.2
20190223062215 0 269 0.0 0.0 0.00 0.00 0.00 32 1042.2
20190223061715 0 269 0.0 0.0 0.00 0.00 0.00 32 1042.1
20190223061215 0 269 0.0 0.0 0.00 0.00 0.00 32 1042.1
20190223060715 0 269 0.0 0.0 0.00 0.00 0.00 32 1042.1
20190223060215 0 269 0.0 0.0 0.00 0.00 0.00 33 1042.1
20190223055715 0 269 0.0 0.0 0.00 0.00 0.00 33 1042.0
20190223055215 0 269 0.0 0.0 0.00 0.00 0.00 33 1042.0
20190223054716 0 269 0.0 0.0 0.00 0.00 0.00 33 1042.1
20190223054216 0 269 0.0 0.0 0.00 0.00 0.00 33 1042.2
20190223053715 0 269 0.0 0.0 0.00 0.00 0.00 33 1042.2
20190223053215 0 269 0.0 0.0 0.00 0.00 0.00 33 1042.2
20190223052716 0 269 0.0 0.0 0.00 0.00 0.00 33 1042.2
20190223052215 0 269 0.0 0.0 0.00 0.00 0.00 33 1042.2
20190223051716 0 269 0.0 0.0 0.00 0.00 0.00 33 1042.2
20190223051216 0 269 0.0 0.0 0.00 0.00 0.00 33 1042.2
20190223050715 0 269 0.0 0.0 0.00 0.00 0.00 33 1042.2
20190223050215 0 269 0.0 0.0 0.00 0.00 0.00 33 1042.2
20190223045715 0 269 0.0 0.0 0.00 0.00 0.00 33 1042.1
20190223045215 0 269 0.0 0.0 0.00 0.00 0.00 33 1042.1
20190223044715 0 269 0.0 0.0 0.00 0.00 0.00 33 1042.1
20190223044215 0 269 0.0 0.0 0.00 0.00 0.00 33 1042.1
20190223043715 0 269 0.0 0.0 0.00 0.00 0.00 33 1042.1
20190223043215 0 269 0.0 0.0 0.00 0.00 0.00 33 1042.1
20190223042715 0 269 0.0 0.0 0.00 0.00 0.00 33 1042.1
20190223042215 0 269 0.0 0.0 0.00 0.00 0.00 33 1042.1
20190223041716 0 269 0.0 0.0 0.00 0.00 0.00 33 1042.1
20190223041215 0 269 0.0 0.0 0.00 0.00 0.00 34 1042.1
20190223040715 0 269 0.0 0.0 0.00 0.00 0.00 34 1042.2
20190223040215 0 269 0.0 0.0 0.00 0.00 0.00 34 1042.1
20190223035715 0 269 0.0 0.0 0.00 0.00 0.00 34 1042.1
20190223035215 0 269 0.0 0.0 0.00 0.00 0.00 34 1042.2
20190223034715 0 269 0.0 0.0 0.00 0.00 0.00 34 1042.2
20190223033715 0 269 0.0 0.0 0.00 0.00 0.00 34 1042.1
20190223033215 0 269 0.0 0.0 0.00 0.00 0.00 34 1042.1
20190223032715 0 269 0.0 0.0 0.00 0.00 0.00 34 1041.9
20190223032216 0 269 0.0 0.0 0.00 0.00 0.00 34 1041.9
20190223031715 0 269 0.0 0.0 0.00 0.00 0.00 34 1041.9
20190223031215 0 269 0.0 0.0 0.00 0.00 0.00 34 1042.0
20190223030715 0 269 0.0 0.0 0.00 0.00 0.00 34 1042.0
20190223030215 0 269 0.0 0.0 0.00 0.00 0.00 34 1042.0
20190223025715 0 269 0.0 0.0 0.00 0.00 0.00 34 1042.0
20190223025216 0 269 0.0 0.0 0.00 0.00 0.00 34 1042.0
20190223024715 0 269 0.0 0.0 0.00 0.00 0.00 34 1042.0
20190223024215 0 269 0.0 0.0 0.00 0.00 0.00 34 1042.0
20190223023715 0 269 0.0 0.0 0.00 0.00 0.00 34 1042.1
20190223023215 0 269 0.0 0.0 0.00 0.00 0.00 34 1042.1
20190223022715 0 269 0.0 0.0 0.00 0.00 0.00 34 1042.1
20190223022215 0 269 0.0 0.0 0.00 0.00 0.00 34 1042.1
20190223021715 0 269 0.0 0.0 0.00 0.00 0.00 34 1042.2
20190223021215 0 269 0.0 0.0 0.00 0.00 0.00 35 1042.3
20190223020716 0 269 0.0 0.0 0.00 0.00 0.00 35 1042.3
20190223020216 0 269 0.0 0.0 0.00 0.00 0.00 35 1042.4
20190223015715 0 269 0.0 0.0 0.00 0.00 0.00 35 1042.5
20190223015216 1 269 0.0 0.0 0.00 0.00 0.00 35 1042.4
20190223014716 1 269 0.0 0.0 0.00 0.00 0.00 35 1042.4
20190223014215 1 269 0.0 0.0 0.00 0.00 0.00 35 1042.3
20190223013715 1 269 0.0 0.0 0.00 0.00 0.00 35 1042.3
20190223013216 1 269 0.0 0.0 0.00 0.00 0.00 35 1042.4
20190223012716 1 269 0.0 0.0 0.00 0.00 0.00 35 1042.4
20190223012215 1 269 0.0 0.0 0.00 0.00 0.00 35 1042.4
20190223011715 1 269 0.0 0.0 0.00 0.00 0.00 35 1042.4
20190223011215 1 269 0.0 0.0 0.00 0.00 0.00 35 1042.4
20190223010715 1 269 0.0 0.0 0.00 0.00 0.00 35 1042.4
20190223010215 1 269 0.0 0.0 0.00 0.00 0.00 35 1042.5
20190223005715 1 269 0.0 0.0 0.00 0.00 0.00 35 1042.5
20190223005215 1 269 0.0 0.0 0.00 0.00 0.00 35 1042.5
20190223004716 1 269 0.0 0.0 0.00 0.00 0.00 35 1042.5
20190223004215 1 269 0.0 0.0 0.00 0.00 0.00 35 1042.5
20190223003715 1 269 0.0 0.0 0.00 0.00 0.00 35 1042.5
20190223003215 1 269 0.0 0.0 0.00 0.00 0.00 35 1042.5
20190223002714 1 269 0.0 0.0 0.00 0.00 0.00 35 1042.5
20190223002215 1 269 0.0 0.0 0.00 0.00 0.00 35 1042.5
20190223001716 1 269 0.0 0.0 0.00 0.00 0.00 36 1042.5
20190223001215 2 269 0.0 0.0 0.00 0.00 0.00 36 1042.5
20190223000715 2 269 0.0 0.0 0.00 0.00 0.00 36 1042.5
20190223000215 2 269 0.0 0.0 0.00 0.00 0.00 36 1042.5
20190222235715 2 269 0.0 0.0 0.00 0.00 0.00 36 1042.6
20190222235215 2 269 0.0 0.0 0.00 0.00 0.00 36 1042.6
20190222234715 2 269 0.0 0.0 0.00 0.00 0.00 36 1042.5
20190222234215 2 269 0.0 0.0 0.00 0.00 0.00 36 1042.4
20190222233715 2 269 0.0 0.0 0.00 0.00 0.00 36 1042.4
20190222233215 2 269 0.0 0.0 0.00 0.00 0.00 36 1042.4
20190222232715 2 269 0.0 0.0 0.00 0.00 0.00 36 1042.4
20190222232216 2 269 0.0 0.0 0.00 0.00 0.00 36 1042.4
20190222231715 2 269 0.0 0.0 0.00 0.00 0.00 36 1042.4
20190222231215 2 269 0.0 0.0 0.00 0.00 0.00 36 1042.4
20190222230715 2 269 0.0 0.0 0.00 0.00 0.00 36 1042.3
20190222230215 2 269 0.0 0.0 0.00 0.00 0.00 36 1042.2
20190222225715 2 269 0.0 0.0 0.00 0.00 0.00 36 1042.2
20190222225215 2 269 0.0 0.0 0.00 0.00 0.00 36 1042.4
20190222224715 2 269 0.0 0.0 0.00 0.00 0.00 36 1042.3
20190222224215 2 269 0.0 1.6 0.00 0.00 0.00 36 1042.5
20190222223716 2 269 0.0 1.6 0.00 0.00 0.00 36 1042.5
20190222223215 2 269 0.0 1.6 0.00 0.00 0.00 36 1042.5
20190222222715 3 269 0.0 0.0 0.00 0.00 0.00 36 1042.5
20190222222216 3 269 0.0 1.6 0.00 0.00 0.00 36 1042.4
20190222221715 3 269 0.0 1.6 0.00 0.00 0.00 36 1042.3
20190222221215 3 269 0.0 1.6 0.00 0.00 0.00 36 1042.3
20190222220715 3 269 0.0 1.6 0.00 0.00 0.00 36 1042.2
20190222220215 3 269 0.0 0.0 0.00 0.00 0.00 36 1042.3
20190222215715 3 269 0.0 0.0 0.00 0.00 0.00 36 1042.2
20190222215215 3 269 0.0 0.0 0.00 0.00 0.00 36 1042.2
20190222214715 3 269 0.0 0.0 0.00 0.00 0.00 36 1042.2
20190222214215 3 269 0.0 0.0 0.00 0.00 0.00 36 1042.1
20190222213715 3 269 0.0 1.6 0.00 0.00 0.00 36 1042.1
20190222213216 3 269 0.0 1.6 0.00 0.00 0.00 36 1042.2
20190222212715 3 269 0.0 1.6 0.00 0.00 0.00 36 1042.2
20190222212215 4 269 0.0 0.0 0.00 0.00 0.00 36 1042.2
20190222211715 4 269 0.0 1.6 0.00 0.00 0.00 36 1042.3
20190222211215 4 269 0.0 1.6 0.00 0.00 0.00 36 1042.3
20190222210715 4 269 0.0 6.4 0.00 0.00 0.00 36 1042.3
20190222210216 4 269 0.0 6.4 0.00 0.00 0.00 36 1042.3
20190222205715 4 80 0.0 6.4 0.00 0.00 0.00 37 1042.3
20190222205215 4 80 0.0 0.0 0.00 0.00 0.00 37 1042.2
20190222204715 4 80 0.0 0.0 0.00 0.00 0.00 37 1042.1
20190222204215 4 80 0.0 0.0 0.00 0.00 0.00 37 1042.0
20190222203715 4 80 0.0 0.0 0.00 0.00 0.00 37 1041.9
20190222203216 4 80 0.0 0.0 0.00 0.00 0.00 37 1041.9
20190222202715 5 80 0.0 0.0 0.00 0.00 0.00 37 1041.9
20190222202215 5 80 0.0 0.0 0.00 0.00 0.00 37 1042.0
20190222201715 5 80 0.0 0.0 0.00 0.00 0.00 37 1042.2
20190222201215 5 80 0.0 0.0 0.00 0.00 0.00 37 1042.1
20190222200715 5 80 0.0 0.0 0.00 0.00 0.00 37 1042.1
20190222200215 5 80 0.0 0.0 0.00 0.00 0.00 37 1042.1
20190222195715 5 80 0.0 0.0 0.00 0.00 0.00 37 1042.2
20190222195215 5 80 0.0 0.0 0.00 0.00 0.00 37 1042.1
20190222194716 5 80 0.0 0.0 0.00 0.00 0.00 37 1042.1
20190222194215 5 80 0.0 0.0 0.00 0.00 0.00 37 1042.0
20190222193715 6 80 0.0 0.0 0.00 0.00 0.00 37 1041.9
20190222193215 6 80 0.0 0.0 0.00 0.00 0.00 37 1041.9
20190222192715 6 80 0.0 0.0 0.00 0.00 0.00 37 1041.9
20190222192215 6 80 0.0 0.0 0.00 0.00 0.00 37 1041.9
20190222191715 6 80 0.0 0.0 0.00 0.00 0.00 37 1041.9
20190222191215 6 80 0.0 0.0 0.00 0.00 0.00 37 1041.7
20190222190716 6 80 0.0 0.0 0.00 0.00 0.00 37 1041.8
20190222190216 6 80 0.0 0.0 0.00 0.00 0.00 37 1041.8
20190222185715 7 80 0.0 0.0 0.00 0.00 0.00 37 1041.9
20190222185216 7 80 0.0 0.0 0.00 0.00 0.00 37 1041.9
20190222184716 7 80 0.0 0.0 0.00 0.00 0.00 37 1041.8
20190222184215 7 80 0.0 0.0 0.00 0.00 0.00 37 1041.9
20190222183715 7 80 0.0 0.0 0.00 0.00 0.00 37 1041.7
20190222183215 7 80 0.0 0.0 0.00 0.00 0.00 37 1041.7
20190222182715 8 80 0.0 0.0 0.00 0.00 0.00 37 1041.6
20190222182215 8 80 0.0 0.0 0.00 0.00 0.00 37 1041.6
20190222181715 8 80 0.0 0.0 0.00 0.00 0.00 37 1041.7
20190222181215 8 80 0.0 1.6 0.00 0.00 0.00 37 1041.7
20190222180715 8 80 0.0 4.8 0.00 0.00 0.00 37 1041.6
20190222180215 8 80 0.0 4.8 0.00 0.00 0.00 37 1041.6
20190222175715 9 80 0.0 4.8 0.00 0.00 0.00 37 1041.5
20190222175215 9 80 0.0 0.0 0.00 0.00 0.00 37 1041.4
20190222174715 10 80 0.0 0.0 0.00 0.00 0.00 37 1041.3
20190222174215 10 80 0.0 1.6 0.00 0.00 0.00 37 1041.2
20190222173715 10 80 0.0 8.0 0.00 0.00 0.00 37 1041.1
20190222173216 10 80 1.6 8.0 0.00 0.00 0.00 37 1041.1
20190222172715 10 80 1.6 8.0 0.00 0.00 0.00 37 1041.0
20190222172215 10 65 1.6 6.4 0.00 0.00 0.00 37 1040.8
20190222171716 11 78 1.6 6.4 0.00 0.00 0.00 37 1040.9
20190222171215 11 55 0.0 3.2 0.00 0.00 0.00 37 1041.0
20190222170714 11 55 0.0 12.9 0.00 0.00 0.00 37 1040.9
20190222170216 11 55 1.6 16.1 0.00 0.00 0.00 37 1041.0
20190222165716 11 55 4.8 16.1 0.00 0.00 0.00 37 1041.0
20190222165215 11 59 8.0 17.7 0.00 0.00 0.00 37 1040.9
20190222164715 11 60 9.7 17.7 0.00 0.00 0.00 37 1040.8
20190222164215 11 76 9.7 17.7 0.00 0.00 0.00 37 1040.7
20190222163715 11 72 9.7 14.5 0.00 0.00 0.00 37 1040.5
20190222163216 12 69 9.7 14.5 0.00 0.00 0.00 37 1040.5
20190222162715 11 72 6.4 16.1 0.00 0.00 0.00 37 1040.5
20190222162215 11 60 8.0 19.3 0.00 0.00 0.00 37 1040.7
20190222161715 12 74 11.3 19.3 0.00 0.00 0.00 37 1040.5
20190222161215 12 71 12.9 19.3 0.00 0.00 0.00 37 1040.7
20190222160715 12 67 9.7 17.7 0.00 0.00 0.00 37 1040.5
20190222160215 12 71 6.4 16.1 0.00 0.00 0.00 37 1040.5
20190222155715 12 76 4.8 16.1 0.00 0.00 0.00 37 1040.5
20190222155216 12 89 6.4 17.7 0.00 0.00 0.00 37 1040.5
20190222154715 12 80 9.7 17.7 0.00 0.00 0.00 37 1040.4
20190222154215 12 86 9.7 17.7 0.00 0.00 0.00 37 1040.5
20190222153715 12 92 11.3 19.3 0.00 0.00 0.00 37 1040.5
20190222153215 12 66 9.7 19.3 0.00 0.00 0.00 37 1040.5
20190222152715 12 76 9.7 19.3 0.00 0.00 0.00 37 1040.5
20190222152215 12 81 8.0 20.9 0.00 0.00 0.00 37 1040.5
20190222151716 12 69 8.0 20.9 0.00 0.00 0.00 37 1040.5
20190222151215 12 54 9.7 20.9 0.00 0.00 0.00 37 1040.4